AirNav   BOSE ProFlight Aviation Headset
 
 584 users online  

D88 Pratt's Eastern Divide Airport
Sherman, New York, USA

GOING TO SHERMAN?


FAA INFORMATION EFFECTIVE 21 JUNE 2018

Location

FAA Identifier: D88
Lat/Long: 42-09-00.2030N / 079-41-09.1720W
42-09.003383N / 079-41.152867W
42.1500564 / -79.6858811
(estimated)
Elevation: 1640 ft. / 500 m (estimated)
Variation: 09W (1985)
From city: 4 miles W of SHERMAN, NY
(3 MI NE OF FINDLEY LAKE.)
Time zone: UTC -4 (UTC -5 during Standard Time)
Zip code: 14781

Airport Operations

Airport use: Open to the public
Activation date: 02/1961
Control tower: no
ARTCC: CLEVELAND CENTER
FSS: BUFFALO FLIGHT SERVICE STATION
NOTAMs facility: BUF (NOTAM-D service available)
Attendance: IREG
Wind indicator: yes
Segmented circle: no

Airport Communications

CTAF: 122.9
WX AWOS-3PT at JHW (19 nm E): 118.425 (716-664-6005)
  • CD THRU FLT SVCS 1-888-766-8267.

Nearby radio navigation aids

VOR radial/distance  VOR name  Freq  Var
JHWr272/25.2JAMESTOWN VOR/DME114.7007W
ERIr080/28.2ERIE VORTAC109.4006W
TDTr344/28.8TIDIOUTE VORTAC117.6009W

 
NDB name  Hdg/Dist  Freq  Var  ID
CORRY003/14.325810WORJ --- .-. .---
CASCADE094/18.737210WCQD -.-. --.- -..

Airport Services

Parking: hangars and tiedowns

Runway Information

Runway 8/26

Dimensions: 2600 x 75 ft. / 792 x 23 m
Surface: turf, in good condition
RUNWAY 8  RUNWAY 26
Traffic pattern: leftleft
Obstructions: 10 ft. road, 30 ft. from runway, 3:1 slope to clear
+28 FT PLINES RUNNING ALONG S SIDE OF HAZEN RD SIGHTED 115 FT L & 495 FT FM RY 08 END.
48 ft. trees, 240 ft. from runway, 78 ft. right of centerline, 5:1 slope to clear
RY 26, 37 FT TREES 195 FM THLD 85 FT R.

Airport Ownership and Management from official FAA records

Ownership: Privately-owned
Owner: DAVID & SYLVIA DANIELS
12553 STATION ROAD
NORTH EAST, PA 16428
Phone 814-725-5923
Manager: SYLVIA S. DANIELS
12553 STATION ROAD
NORTH EAST, PA 16428
Phone 814-725-5923

Airport Operational Statistics

Aircraft based on the field: 5
Single engine airplanes: 2
Ultralights: 3
    
Aircraft operations: 200/year *
50% transient general aviation
50% local general aviation
* for 12-month period ending 10 June 2015

Additional Remarks

ULTRALGT ON & INVOF ARPT.
THERE ARE 28 FT PLINES RUNNING ALONG S SIDE OF HAZEN RD SIGHTED 115 FT LEFT & 495 FT FM RY 08 END.
DEER ON & INVOF RY.
FOR IFR CLEARANCE CTC CLEVELAND ARTCC (ZOB) 127.075/292.175 OR CALL ZOB 440-774-0489.

Instrument Procedures

There are no published instrument procedures at D88.

Some nearby airports with instrument procedures:

8G2 - Corry-Lawrence Airport (15 nm S)
KJHW - Chautauqua County/Jamestown Airport (19 nm E)
KERI - Erie International Airport/Tom Ridge Field (22 nm W)
KDKK - Chautauqua County/Dunkirk Airport (28 nm NE)
6G1 - Titusville Airport (33 nm S)
 
Loc | Ops | Rwys | IFR | FBO | Links
Com | Nav | Svcs | Stats | Notes


 
Area around D88 (Pratt's Eastern Divide Airport)
 
Road maps at: MapQuest Bing Google
 
Aerial photo
WARNING: Photo may not be current or correct
Aerial photo of D88 (Pratt's Eastern Divide Airport)
Do you have a better or more recent aerial photo of Pratt's Eastern Divide Airport that you would like to share? If so, please send us your photo.

 
Sectional chart

 
Airport distance calculator
Flying to Pratt's Eastern Divide Airport? Find the distance to fly.

From to D88

Sunrise and sunset
Times for 18-Jul-2018
 Local
(UTC-4)
 Zulu
(UTC)
Morning civil twilight05:2609:26
Sunrise05:5909:59
Sunset20:5000:50
Evening civil twilight21:2401:24

Current date and time
Zulu (UTC)  18-Jul-2018 05:17:46
Local (UTC-4)  18-Jul-2018 01:17:46
 
METAR
8G2 
15nm S 
SuperAWOS
180455Z AUTO 00000KT 10SM 15/12 A3010
KJHW 
19nm E 
180456Z AUTO 35006KT 10SM CLR 17/13 A3003 RMK AO2 SLP164 T01670128 402390167
KERI 
22nm W 
180451Z AUTO 35008KT 10SM CLR 22/13 A3002 RMK AO2 SLP159 T02170133 402780217
KDKK 
28nm NE 
180453Z AUTO 36006KT 10SM BKN044 21/14 A3000 RMK AO2 SLP153 T02060139 402670206 $
CWPS 
29nm NW 
180400Z AUTO 31017KT 21/13 RMK AO1 PK WND 30022/0300 SLP148 T02080128 51010
TAF
KJHW 
19nm E 
180227Z 1802/1824 32008KT P6SM SCT035 FM181000 36005KT P6SM SCT008 FM181400 02008KT P6SM SCT025 FM181900 35008KT P6SM SKC
KERI 
22nm W 
180030Z 1801/1824 32010G18KT P6SM SKC FM180200 01008KT P6SM SCT040
NOTAMs
Click for the latest NOTAMs
NOTAMs are issued by the DoD/FAA and will open in a separate window not controlled by AirNav.

 

 
 

Would you like to see your business listed on this page?

 If your business provides an interesting product or service to pilots, flight crews, aircraft, or users of the Pratt's Eastern Divide Airport, you should consider listing it here.  To start the listing process, click on the button below
 
Add a business
 

Other Pages about Pratt's Eastern Divide Airport

Update a link
 
Copyright © AirNav, LLC. All rights reserved. Privacy Policy  Contact